This is the latest recevied weather packets stored in our database for station/object OK1TBM-13. If no packets are shown the sender has not sent any weather packets the latest 10 day(s).
| Time | Temp. | Humidity | Pressure | Rain* | Wind** | Luminosity | Snow |
|---|---|---|---|---|---|---|---|
| 1787853601 | 23.33° C | 54% | 1016.3 hPa | 0 mm | - | 1 W/m² | - |
| 1787853301 | 23.89° C | 53% | 1016.3 hPa | 0 mm | - | 2 W/m² | - |
| 1787853002 | 23.89° C | 53% | 1016.3 hPa | 0 mm | - | 3 W/m² | - |
| 1787852401 | 24.44° C | 53% | 1016.6 hPa | 0 mm | - | 9 W/m² | - |
| 1787852101 | 24.44° C | 52% | 1016.3 hPa | 0 mm | - | 15 W/m² | - |
| 1787851801 | 24.44° C | 52% | 1016.3 hPa | 0 mm | - | 19 W/m² | - |
| 1787851501 | 24.44° C | 51% | 1016.3 hPa | 0 mm | - | 21 W/m² | - |
| 1787851202 | 25° C | 51% | 1016.3 hPa | 0 mm | - | 23 W/m² | - |
| 1787850602 | 25.56° C | 50% | 1016.3 hPa | 0 mm | - | 32 W/m² | - |
| 1787850302 | 25.56° C | 50% | 1016.3 hPa | 0 mm | - | 31 W/m² | - |
| 1787850001 | 26.11° C | 49% | 1016.3 hPa | 0 mm | - | 47 W/m² | - |
| 1787849702 | 26.11° C | 48% | 1016.3 hPa | 0 mm | - | 54 W/m² | - |
| 1787849402 | 26.11° C | 49% | 1016.3 hPa | 0 mm | - | 48 W/m² | - |
| 1787849102 | 26.67° C | 48% | 1016.3 hPa | 0 mm | - | 46 W/m² | - |
| 1787848801 | 26.67° C | 48% | 1016.3 hPa | 0 mm | - | 56 W/m² | - |
| 1787848501 | 27.22° C | 46% | 1016.3 hPa | 0 mm | - | 62 W/m² | - |
| 1787848201 | 27.78° C | 46% | 1016.3 hPa | 0 mm | - | 81 W/m² | - |
| 1787847601 | 27.22° C | 46% | 1016.6 hPa | 0 mm | - | 82 W/m² | - |
| 1787847301 | 27.22° C | 47% | 1016.6 hPa | 0 mm | - | 93 W/m² | - |
| 1787847001 | 27.78° C | 46% | 1016.6 hPa | 0 mm | - | 65 W/m² | - |
| 1787846702 | 27.78° C | 45% | 1016.6 hPa | 0 mm | - | 100 W/m² | - |
| 1787846406 | 28.33° C | 45% | 1016.6 hPa | 0 mm | - | 101 W/m² | - |
| 1787846102 | 27.78° C | 45% | 1016.6 hPa | 0 mm | - | 153 W/m² | - |
| 1787845802 | 28.89° C | 44% | 1016.6 hPa | 0 mm | - | 152 W/m² | - |
| 1787845501 | 28.33° C | 45% | 1016.6 hPa | 0 mm | - | 175 W/m² | - |
* Rain latest hour (hover to see other rain measurements)
** Current wind speed in m/s (hover to see current wind gust speed)